Location: Saint Louis
(38.6272°N, 90.1978°W)
Time: 00:31:13
(UTC-05:00)

ISS - Pass Details

Date: 04 August 2013
Orbit: 401 x 404 km, 51.6° (Epoch: 30 July)

Event Time Altitude Azimuth Distance (km) Brightness Sun altitude
Rises 04:49:53 0° 312° (NW) 2,348 0.4 -13.7°
Reaches altitude 10° 04:52:00 10° 317° (NW) 1,487 -0.6 -13.3°
Maximum altitude 04:55:17 54° 36° (NE) 514 -2.4 -12.8°
Drops below altitude 10° 04:58:32 10° 114° (ESE) 1,477 -0.1 -12.3°
Sets 05:00:42 0° 119° (ESE) 2,354 0.9 -11.9°
